Flag for South Korea Weather past 2 weeks in Busan, South Korea

Now
46 °F

Clear.


Feels Like: 46 °F
Forecast: 48 / 68 °F
Wind: 2 mph from Northeast

Location: Pusan / Kimhae International Airport

Current Time: Apr 22, 2015 at 7:07:57 AM

Latest Report: Apr 22, 2015 at 6:00 AM


Visibility: 6 mi

Pressure: 30.07 "Hg

Humidity: 87%

Dew point: 43 °F

Location of BusanLocation

Historic Weather in Busan — Graph

°F

Busan temperature yesterday

Maximum temperature yesterday: 64 °F (at 12:00 PM)
Minimum temperature yesterday: 45 °F (at 2:55 AM)
Average temperature yesterday: 54 °F

Past Weeks' High & Low Weather Summary

 TemperatureHumidityPressure
High68 °F (Apr 15, 4:00 PM)100% (Apr 19, 5:56 AM)30.36 "Hg (Apr 19, 5:56 AM)
Low37 °F (Apr 9, 6:00 AM)12% (Apr 18, 3:00 PM)29.58 "Hg (Apr 20, 1:56 AM)
Average54 °F68%30.04 "Hg
* Reported Apr 7 6:00 AM — Apr 22 6:00 AM, Busan, Weather by CustomWeather, © 2015

Note: Actual official high and low records may vary slightly from our data, if they occured in-between our weather recording intervals... More about our weather records

Advertising

Busan weather history for previous 24 hours

 ConditionsComfort  
Time TempWeatherWind HumidityBarometerVisibility
6:00 AM
Wed, Apr 22
46 °FClear.2 mph87%30.07 "Hg6 mi
5:00 AM48 °FClear.1 mph82%30.04 "Hg5 mi
3:56 AM50 °FFog.2 mph76%30.05 "Hg5 mi
2:56 AM50 °FFog.3 mph76%30.04 "Hg5 mi
1:56 AM48 °FFog.5 mph87%30.05 "Hg6 mi
12:56 AM48 °FFog.5 mph82%30.05 "Hg6 mi
11:00 PM
Tue, Apr 21
52 °FClear.2 mph77%30.07 "Hg10 mi
10:00 PM54 °FClear.1 mph77%30.07 "Hg10 mi
9:00 PM55 °FClear.3 mph82%30.07 "Hg10 mi
8:00 PM55 °FClear.6 mph77%30.04 "Hg10 mi
7:00 PM59 °FSunny.7 mph51%30.01 "Hg10 mi
6:00 PM59 °FSunny.9 mph63%30.01 "Hg10 mi
5:00 PM61 °FSunny.15 mph59%29.98 "Hg10 mi
4:00 PM63 °FPassing clouds.16 mph59%29.98 "HgN/A
3:00 PM64 °FPassing clouds.15 mph52%29.98 "HgN/A
2:00 PM63 °FPassing clouds.14 mph59%30.01 "HgN/A
1:00 PM63 °FPassing clouds.12 mph64%30.01 "HgN/A
12:00 PM64 °FPassing clouds.5 mph46%30.01 "HgN/A
11:00 AM61 °FSunny.5 mph63%30.04 "Hg10 mi
10:00 AM57 °FSunny.5 mph72%30.04 "Hg10 mi
9:00 AM52 °FPassing clouds.3 mph82%30.04 "HgN/A
8:00 AM45 °FPassing clouds.5 mph100%30.01 "Hg6 mi
7:00 AM45 °FClear.6 mph93%30.01 "Hg6 mi
Weather by CustomWeather, © 2015

See weather overviewHow to use our weather pages